GREENCUBE (IO-117)

Last updated on Wed Sep 09 2026 00:03:15 GMT+0000 (Coordinated Universal Time)

1 53109U 22080E 26250.04902264 -.00000003 00000+0 00000+0 0 9994 2 53109 70.1225 269.7735 0009245 271.7747 88.1853 6.42583768 97324
UTC large
Height (km)
Speed (km/s)
/
Latitude / Longitude
Inclination (degrees)
Orbital Period (minutes)
Azimuth
Elevation
Range (km)
Doppler Factor

Next 0 passes for location: London (51.5072 / 0.1276)

No passes found over London.
GREENCUBE (IO-117)